Location: Heilbronn
(49.1548°N, 9.2780°E)
Time: 12:38:34
(UTC+01:00)

ISS - Pass Details

Date: 09 January 2018
Orbit: 402 x 407 km, 51.6° (Epoch: 19 January)

Event Time Altitude Azimuth Distance (km) Brightness Sun altitude
Exits shadow 07:21:29 12° 285° (WNW) 1,366 -1.8 -8.6°
Maximum altitude 07:24:28 58° 207° (SSW) 480 -3.5 -8.2°
Drops below altitude 10° 07:27:42 10° 127° (SE) 1,465 0.6 -7.7°
Sets 07:29:48 0° 123° (ESE) 2,324 2.3 -7.4°
